Wind_Speed
33 30 27 24 22 19 19 20 20 20 20 19 17 16 15 15 15 15 14 14 15 16 18 18 18 20 21 21 21 20 18 19 21 22 19 17 16 16 17 16 15 16 16
36 34 31 27 24 21 20 21 21 21 21 20 18 16 15 14 14 14 14 15 16 18 20 21 21 23 24 24 24 24 21 20 21 22 20 18 16 16 16 16 16 16 16
39 39 34 29 26 23 22 22 22 22 22 21 19 16 15 14 14 15 17 18 20 21 22 23 24 25 26 26 26 25 23 21 22 23 21 20 18 17 16 15 15 16 16
41 40 36 31 27 26 25 24 23 22 22 21 18 17 15 15 15 17 19 21 22 23 24 24 24 25 27 27 27 25 23 22 23 24 23 22 20 18 16 15 14 15 16
40 39 35 31 28 29 29 26 24 22 21 20 17 17 16 17 19 20 22 23 23 24 24 24 24 25 26 27 27 25 24 24 25 26 25 24 23 21 18 16 14 14 14
36 37 35 32 33 35 32 26 24 22 21 18 16 16 17 19 21 22 23 24 24 23 23 23 24 25 26 26 26 25 25 25 27 28 27 26 24 22 20 18 16 15 14
27 31 34 36 36 35 30 24 22 20 18 16 15 16 18 21 22 23 24 24 24 23 23 23 23 24 25 24 24 24 25 27 27 27 28 27 25 24 22 21 18 16 15
20 25 29 31 33 33 28 23 19 16 15 15 16 18 20 22 22 23 24 24 24 24 23 22 22 23 22 22 21 22 23 25 25 24 24 26 25 24 25 24 22 20 18
19 22 25 26 27 27 24 18 14 12 13 16 18 20 21 22 23 24 24 24 24 23 23 22 22 21 21 19 18 18 20 22 23 21 21 22 23 23 24 25 25 24 23
22 24 25 25 22 20 18 14 11 11 14 17 20 21 22 22 23 24 24 24 23 22 21 21 21 20 19 17 15 14 16 18 20 21 21 20 21 22 22 23 26 27 27
22 23 23 21 18 16 12 10 10 12 15 18 20 21 22 23 24 26 25 24 22 21 20 20 19 18 16 15 14 13 14 15 17 19 20 20 21 21 22 24 26 28 29
15 14 14 12 10 8 8 9 11 14 17 20 22 23 25 25 25 24 24 22 20 19 19 18 18 17 16 15 14 13 13 14 15 17 18 19 20 21 22 23 25 28 30
7 7 7 5 4 5 6 10 12 16 19 21 24 25 25 23 22 22 21 20 18 17 17 17 17 17 17 16 16 15 15 15 16 17 18 19 20 22 22 24 26 29 31
5 6 7 6 6 7 9 12 15 17 19 22 24 25 23 19 18 19 19 18 18 18 18 17 17 17 18 19 19 19 18 18 18 19 20 20 21 21 22 24 26 29 33
8 8 9 9 10 11 14 16 17 19 21 22 24 24 19 17 16 17 18 19 20 20 20 19 18 18 18 20 21 22 22 22 22 22 23 23 23 23 23 23 25 29 33
11 11 11 12 14 17 18 19 19 20 20 21 22 20 19 17 16 17 19 19 19 19 20 20 21 20 20 21 22 23 23 23 23 24 25 25 25 25 24 22 22 25 30
9 11 13 14 15 17 18 18 17 17 18 18 18 18 18 18 19 20 20 20 21 21 21 21 21 22 22 22 22 23 23 24 24 25 25 25 26 25 24 22 21 22 26
6 7 8 9 10 12 13 13 13 14 15 16 17 19 20 20 20 20 21 21 22 22 23 23 23 22 23 24 23 23 23 24 24 25 26 25 25 25 24 22 22 21 22
2 2 3 5 7 8 9 11 12 13 15 16 17 18 19 19 20 20 21 21 22 22 22 23 22 21 21 21 22 22 22 22 23 24 25 26 26 25 24 24 23 22 22
4 2 1 3 5 7 9 11 13 14 15 16 16 17 18 19 19 20 20 21 21 21 21 21 21 20 20 20 20 20 21 21 22 22 23 25 26 26 25 24 24 23 22
3 3 4 6 8 9 11 12 14 15 15 16 17 17 18 19 19 20 20 20 20 20 20 20 20 21 21 22 22 22 22 23 22 22 22 23 25 25 25 25 25 25 23
5 6 7 8 10 11 12 14 15 16 16 17 18 18 19 20 19 19 18 18 18 18 18 19 20 21 23 24 26 27 28 28 27 26 25 25 25 25 24 24 25 25 25
9 9 10 11 11 12 13 14 16 17 18 19 19 20 20 19 18 17 16 15 15 17 18 20 21 22 24 26 27 29 31 31 31 30 28 27 26 25 24 23 23 24 24
11 11 11 12 13 13 14 15 16 18 19 19 19 19 18 17 16 15 14 15 16 17 19 20 21 23 25 26 28 29 30 30 30 30 30 28 26 24 23 23 22 23 23
11 12 13 14 14 15 15 16 17 17 17 17 16 15 14 14 13 13 13 14 16 18 19 19 20 21 22 22 23 23 24 25 26 26 27 25 23 22 21 21 21 21 21
12 13 15 16 16 16 17 18 18 17 16 15 15 14 14 13 12 11 12 14 16 17 17 18 18 18 17 17 15 12 11 14 17 19 20 20 19 19 18 18 18 18 19
Wind_Direction
272 273 275 276 275 276 276 275 273 269 268 267 268 270 275 281 286 288 286 281 288 294 296 294 291 288 288 287 285 283 277 269 263 258 254 252 247 239 240 242 238 233 228
267 271 272 271 271 270 272 274 273 272 271 271 273 276 280 286 290 290 288 288 290 293 293 292 288 285 283 280 278 278 275 265 259 255 251 246 240 236 240 241 233 224 222
265 269 267 266 266 267 268 269 271 272 272 274 278 281 285 288 289 289 292 294 295 293 291 290 285 280 278 277 275 274 271 260 253 250 247 244 239 236 235 235 229 220 221
260 260 258 259 259 262 263 265 266 267 270 274 278 282 284 287 289 290 291 292 292 291 288 286 282 277 275 273 270 268 266 256 250 246 241 241 240 233 230 231 228 219 218
251 248 248 249 250 253 254 258 261 263 266 271 274 278 283 291 294 293 293 293 293 291 288 286 283 280 276 269 265 262 258 253 249 247 242 240 239 231 227 228 228 221 217
242 238 237 239 240 241 242 245 254 259 266 270 272 278 287 294 295 294 295 295 294 291 288 287 285 281 277 270 262 258 254 251 249 246 242 241 239 230 226 227 229 226 219
236 234 232 234 236 237 235 233 242 253 262 266 273 282 289 292 293 294 294 293 291 289 288 287 284 280 276 270 262 255 250 247 247 243 239 238 238 232 223 224 227 230 225
224 226 228 233 237 239 230 223 230 240 254 267 277 283 287 289 291 292 291 291 291 292 291 288 282 278 274 270 264 254 249 246 245 245 239 235 237 233 223 221 224 228 229
226 224 229 233 234 232 228 222 223 238 259 273 280 282 285 288 290 291 290 290 291 291 290 286 280 275 272 270 264 252 246 246 247 247 243 240 237 236 229 226 225 226 228
228 223 225 225 224 216 212 212 226 247 265 274 278 280 283 287 289 290 289 288 288 288 287 283 277 272 268 265 262 253 245 245 246 246 245 242 239 239 238 239 231 226 227
225 224 223 217 207 198 203 220 243 261 272 277 277 278 280 282 286 288 287 284 282 283 282 278 274 268 264 260 257 251 243 241 241 241 240 240 239 243 246 244 240 233 228
228 231 226 214 196 199 216 232 254 271 279 279 278 277 281 285 288 289 288 284 279 277 277 275 270 265 261 258 256 251 245 242 240 237 237 237 240 244 246 245 244 239 232
229 238 233 223 211 206 221 243 262 273 278 281 283 284 288 289 292 293 292 289 281 273 274 274 270 265 260 259 257 256 253 249 246 243 242 244 245 248 249 248 245 241 237
222 239 250 245 237 236 246 256 266 274 281 286 289 291 289 287 291 294 294 291 283 275 275 274 272 268 262 258 257 256 256 255 254 253 252 252 252 253 253 252 248 243 239
242 247 247 251 257 258 260 263 271 280 286 290 293 294 291 288 292 293 292 291 283 277 275 275 274 272 268 263 259 257 257 256 256 256 256 256 256 257 256 256 254 247 241
239 241 244 253 262 269 272 274 278 284 288 293 294 294 297 299 298 296 295 293 290 284 279 276 273 272 271 269 265 263 261 258 257 257 258 258 259 260 259 258 256 248 241
230 235 245 256 266 273 276 279 283 284 289 292 295 300 302 301 299 298 297 296 294 291 287 282 277 273 270 269 267 265 264 262 260 258 258 258 259 260 258 256 253 248 242
215 234 249 262 270 273 275 277 282 286 290 292 296 298 299 300 299 299 298 296 295 292 290 286 282 278 273 270 268 266 264 263 261 260 258 257 257 257 256 253 250 247 245
157 222 258 270 273 274 274 277 282 287 292 295 298 299 300 300 299 298 297 296 295 292 289 287 283 280 275 272 268 264 263 263 262 261 260 259 257 255 254 251 248 247 246
87 75 344 296 285 285 288 290 294 298 301 303 304 306 307 305 303 300 298 297 297 294 291 287 283 279 274 271 269 264 263 263 263 261 261 260 259 257 255 251 249 248 247
44 2 327 312 305 303 303 303 303 305 307 307 308 311 313 312 309 305 302 300 298 296 292 288 284 280 276 272 269 266 264 264 263 262 261 259 258 258 255 253 251 249 248
11 350 336 327 321 317 314 311 308 308 307 306 305 308 310 312 311 308 305 303 302 300 297 293 289 285 281 277 272 269 265 263 261 260 259 258 256 255 254 253 251 250 248
2 350 342 338 334 328 322 317 312 309 307 304 303 304 306 308 310 309 309 310 310 308 305 301 297 294 290 285 278 273 267 262 258 255 254 253 252 251 251 250 248 246 246
360 354 351 349 345 340 335 331 325 319 315 313 311 310 310 312 313 314 314 315 314 313 311 308 305 303 299 293 286 279 269 261 254 249 248 247 247 247 247 245 244 244 245
7 7 5 1 356 352 348 343 338 332 329 327 326 327 328 328 327 324 321 321 320 320 318 317 316 314 312 306 297 285 270 257 247 241 240 239 240 241 241 241 242 241 240
13 11 8 4 0 358 356 353 351 349 349 350 351 352 352 351 348 344 339 336 334 333 332 331 330 329 330 328 322 305 274 246 233 226 225 226 228 230 234 235 236 237 240
Height
5854 5855 5857 5858 5859 5860 5860 5859 5859 5859 5859 5858 5858 5858 5858 5857 5856 5855 5854 5854 5853 5851 5850 5849 5848 5846 5845 5844 5843 5842 5841 5840 5839 5839 5840 5841 5843 5845 5846 5847 5848 5849 5850
5846 5848 5850 5851 5853 5854 5854 5854 5854 5853 5853 5853 5854 5854 5853 5853 5852 5851 5850 5849 5848 5846 5845 5843 5842 5841 5840 5839 5838 5837 5836 5836 5835 5835 5836 5837 5839 5841 5842 5843 5844 5845 5847
5837 5840 5842 5844 5846 5847 5848 5848 5848 5848 5848 5848 5849 5849 5848 5848 5847 5846 5845 5844 5842 5841 5839 5838 5836 5835 5834 5833 5831 5831 5831 5831 5830 5830 5831 5832 5834 5836 5838 5840 5840 5841 5843
5829 5831 5834 5836 5839 5841 5841 5842 5843 5843 5844 5844 5844 5844 5844 5843 5843 5841 5840 5838 5836 5834 5833 5831 5830 5829 5827 5826 5825 5825 5825 5825 5825 5825 5826 5828 5830 5832 5834 5836 5837 5838 5839
5820 5823 5825 5828 5830 5832 5833 5834 5835 5837 5838 5839 5839 5839 5839 5838 5836 5835 5833 5831 5829 5827 5826 5824 5823 5821 5820 5819 5818 5818 5818 5818 5819 5820 5821 5823 5825 5827 5829 5831 5833 5834 5835
5812 5815 5818 5819 5821 5822 5824 5825 5828 5830 5832 5833 5834 5834 5833 5831 5830 5828 5826 5824 5822 5820 5819 5818 5816 5814 5813 5811 5811 5811 5811 5812 5813 5814 5815 5817 5819 5822 5824 5827 5829 5831 5832
5805 5808 5811 5812 5812 5813 5815 5817 5821 5824 5826 5827 5828 5828 5827 5825 5824 5822 5820 5818 5816 5814 5813 5811 5809 5808 5806 5805 5804 5804 5804 5805 5806 5808 5809 5812 5814 5817 5819 5822 5825 5827 5829
5799 5802 5804 5805 5806 5807 5808 5810 5815 5819 5822 5823 5823 5822 5821 5819 5818 5816 5814 5812 5810 5808 5806 5804 5802 5801 5799 5798 5797 5797 5798 5799 5800 5801 5803 5805 5808 5811 5814 5817 5820 5823 5825
5794 5795 5796 5797 5798 5800 5803 5807 5811 5815 5817 5818 5817 5816 5815 5813 5812 5810 5808 5806 5803 5801 5799 5797 5796 5795 5794 5792 5791 5791 5792 5793 5795 5796 5798 5800 5803 5805 5808 5811 5814 5818 5820
5788 5789 5790 5789 5791 5795 5800 5804 5808 5811 5812 5812 5811 5810 5808 5807 5806 5804 5802 5799 5797 5795 5793 5791 5790 5789 5789 5788 5787 5787 5787 5789 5790 5791 5793 5795 5797 5800 5803 5805 5808 5811 5815
5782 5785 5786 5786 5789 5794 5798 5802 5805 5807 5807 5806 5805 5803 5802 5801 5799 5797 5794 5792 5790 5789 5787 5786 5785 5785 5784 5784 5783 5783 5784 5784 5785 5786 5788 5790 5792 5794 5796 5799 5802 5804 5808
5779 5781 5783 5786 5790 5794 5797 5800 5802 5802 5801 5800 5798 5797 5795 5794 5791 5789 5786 5784 5783 5782 5782 5780 5779 5779 5779 5779 5780 5780 5780 5781 5782 5783 5784 5785 5787 5789 5790 5792 5795 5798 5801
5778 5780 5783 5786 5789 5792 5795 5796 5797 5797 5795 5794 5792 5790 5788 5786 5784 5782 5780 5778 5777 5777 5776 5776 5774 5774 5774 5775 5775 5776 5776 5777 5778 5779 5780 5781 5782 5783 5784 5786 5788 5791 5794
5778 5781 5783 5785 5787 5789 5791 5792 5792 5791 5790 5788 5785 5783 5780 5778 5777 5776 5775 5773 5772 5772 5772 5771 5770 5769 5769 5770 5770 5771 5772 5772 5773 5774 5775 5776 5777 5778 5779 5779 5781 5782 5785
5776 5778 5781 5782 5784 5786 5787 5788 5787 5787 5785 5783 5780 5777 5774 5773 5773 5772 5770 5769 5767 5767 5766 5766 5765 5765 5764 5764 5765 5765 5766 5767 5767 5768 5769 5770 5771 5772 5772 5773 5773 5774 5776
5774 5776 5777 5778 5779 5780 5780 5781 5781 5781 5780 5778 5775 5772 5769 5769 5768 5767 5766 5764 5762 5761 5760 5760 5760 5759 5759 5759 5758 5759 5759 5760 5761 5762 5762 5763 5764 5765 5765 5766 5766 5767 5768
5770 5772 5774 5775 5775 5776 5775 5776 5776 5776 5775 5773 5771 5768 5767 5765 5764 5762 5761 5759 5757 5755 5754 5754 5753 5753 5752 5752 5752 5752 5753 5753 5754 5755 5756 5757 5758 5759 5759 5760 5760 5761 5762
5769 5771 5772 5773 5773 5773 5773 5773 5773 5772 5771 5770 5767 5765 5763 5761 5759 5757 5755 5753 5752 5750 5748 5747 5746 5745 5745 5745 5745 5745 5746 5746 5747 5748 5749 5750 5751 5752 5753 5754 5755 5755 5756
5770 5771 5771 5772 5772 5772 5772 5771 5771 5770 5769 5767 5764 5762 5759 5757 5754 5752 5750 5748 5745 5743 5741 5740 5739 5738 5738 5737 5737 5738 5738 5739 5740 5741 5741 5742 5744 5745 5746 5748 5749 5750 5751
5772 5772 5772 5772 5772 5771 5771 5770 5768 5767 5765 5763 5760 5757 5755 5752 5749 5746 5743 5741 5739 5737 5735 5734 5732 5732 5731 5731 5730 5731 5731 5732 5733 5734 5735 5735 5736 5738 5739 5741 5743 5744 5746
5774 5773 5773 5772 5771 5770 5769 5767 5765 5764 5761 5758 5756 5753 5750 5746 5743 5740 5737 5735 5733 5731 5729 5728 5727 5726 5725 5725 5724 5724 5725 5725 5726 5727 5728 5729 5729 5731 5732 5734 5736 5738 5740
5775 5774 5773 5772 5770 5768 5767 5765 5763 5760 5758 5755 5752 5749 5746 5742 5739 5735 5733 5730 5728 5726 5724 5722 5721 5719 5718 5717 5716 5716 5716 5717 5718 5719 5720 5721 5723 5724 5726 5728 5730 5732 5734
5776 5774 5772 5770 5769 5767 5765 5763 5760 5757 5754 5751 5748 5745 5741 5738 5734 5731 5729 5726 5724 5722 5719 5717 5715 5713 5710 5708 5707 5706 5705 5706 5708 5709 5711 5713 5715 5717 5720 5722 5724 5725 5728
5775 5773 5771 5769 5767 5765 5763 5760 5757 5754 5750 5746 5743 5740 5736 5733 5730 5727 5725 5722 5720 5717 5715 5712 5709 5705 5702 5698 5695 5693 5693 5694 5696 5699 5702 5705 5708 5711 5713 5716 5718 5720 5722
5775 5773 5770 5768 5766 5763 5761 5758 5754 5750 5746 5743 5739 5735 5732 5729 5726 5723 5721 5719 5716 5713 5710 5707 5703 5699 5695 5690 5685 5682 5681 5682 5685 5689 5693 5698 5702 5705 5708 5710 5713 5715 5717
5775 5773 5770 5767 5765 5762 5759 5755 5751 5748 5744 5740 5736 5733 5729 5726 5724 5721 5719 5716 5713 5710 5707 5703 5699 5695 5690 5685 5679 5675 5673 5674 5678 5683 5688 5692 5696 5700 5703 5706 5709 5711 5713